Location: Shandelee
(41.8790°N, 74.8713°W)
Time: 05:14:20
(UTC+00:00)

YAOGAN 3 - Pass Details

Date: 29 October 2020
Orbit: 625 x 627 km, 98.0° (Epoch: 27 November)

Event Time Altitude Azimuth Distance (km) Brightness Sun altitude
Rises 22:56:57 0° 162° (SSE) 2,898 7.9 -11.7°
Reaches altitude 10° 22:59:08 10° 161° (SSE) 1,996 7.1 -12.1°
Maximum altitude 23:03:28 79° 76° (ENE) 645 4.5 -12.9°
Drops below altitude 10° 23:07:51 10° 350° (N) 2,011 7.2 -13.7°
Sets 23:10:03 0° 349° (N) 2,923 8.1 -14.1°
